Volver al catálogo

STARLINK-31521

ActivoComunicacionesVLEO
NORAD 59015·PAYLOAD·🇺🇸 United States

Lanzado Feb 23, 2024 desde Vandenberg Space Force Base

Loading…

Próximos Pases (próximas 24 horas)

TLE

ActualizadoSource: CelesTrak SupGP

Época: Sep 14, 2026, 21:08 UTC

1 59015C 24036T   26257.88104167  .00038625  00000+0  12423-2 0  2576
2 59015  53.1563 279.1712 0001048  86.1069 208.1831 15.31675603    18

Sigue STARLINK-31521 en tiempo real con AllMySat

Download on the App Store